Watsonville, CA

7:25 PM PDT on August 18, 2017 (GMT -0700)
Watsonville Municipal

Weather History for KWVI - November, 2012

Change the Weather History Date:

Wednesday, November 28, 2012

  Actual Average Record
Temperature  
Mean Temperature 55 °F 52 °F  
Max Temperature 62 °F 62 °F 78 °F (1956)
Min Temperature 48 °F 41 °F 31 °F (2015)
Degree Days  
Heating Degree Days 10    
Month to date heating degree days 237  
Since 1 July heating degree days 725  
Cooling Degree Days 0    
Month to date cooling degree days 11  
Year to date cooling degree days 79  
Growing Degree Days 5 (Base 50)    
Moisture  
Dew Point 52 °F    
Average Humidity 89    
Maximum Humidity 100    
Minimum Humidity 77    
Precipitation  
Precipitation 0.46 in - 1.65 in (1984)
Month to date precipitation 2.34  
Year to date precipitation 14.72  
Since 1 July precipitation 2.79  
Sea Level Pressure  
Sea Level Pressure 29.98 in    
Wind  
Wind Speed 6 mph (SSW)    
Max Wind Speed 32 mph    
Max Gust Speed 43 mph    
Visibility 8 miles    
Events Rain    
T = Trace of Precipitation, MM = Missing Value Source: NWS Daily Summary

Daily Weather History Graph

Daily Weather History Graph

Search for Another Location

Airport or City:

Trip Planner

Search our weather history database for the weather conditions in past years. The results will help you decide how hot, cold, wet, or windy it might be!

Date:

Astronomy

Nov. 28, 2012 Rise Set
Actual Time 6:59 AM PST 4:51 PM PST
Civil Twilight 6:30 AM PST 5:19 PM PST
Nautical Twilight 5:58 AM PST 5:51 PM PST
Astronomical Twilight 5:27 AM PST 6:22 PM PST
Moon 5:10 PM PST (11/28) 7:01 AM PST (11/28)
Length of Visible Light 10h 48m
Length of Day
9h 51m
Full, 100% of the Moon is Illuminated
Nov 28
Full
Dec 6
Last Quarter
Dec 13
New
Dec 19
First Quarter
Dec 28
Full

Hourly Weather History & Observations

Time (PST) Temp. Dew Point Humidity Pressure Visibility Wind Dir Wind Speed Gust Speed Precip Events Conditions
12:53 AM 48.9 °F 45.0 °F 86% 30.02 in 10.0 mi Variable 4.6 mph - N/A   Clear
1:53 AM 50.0 °F 45.0 °F 83% 29.99 in 10.0 mi SSE 3.5 mph - N/A   Clear
2:53 AM 48.9 °F 45.0 °F 86% 29.97 in 10.0 mi North 3.5 mph - N/A   Clear
3:53 AM 50.0 °F 45.0 °F 83% 29.96 in 10.0 mi Calm Calm - N/A   Clear
4:53 AM 52.0 °F 46.0 °F 80% 29.96 in 10.0 mi Calm Calm - 0.00 in   Mostly Cloudy
5:53 AM 52.0 °F 46.9 °F 83% 29.96 in 10.0 mi Calm Calm - 0.00 in   Overcast
6:53 AM 53.1 °F 46.9 °F 80% 29.95 in 10.0 mi North 3.5 mph - 0.00 in   Overcast
7:53 AM 53.1 °F 48.0 °F 83% 29.94 in 10.0 mi NW 3.5 mph - 0.00 in Rain Light Rain
8:53 AM 53.1 °F 50.0 °F 89% 29.91 in 5.0 mi NNE 3.5 mph - 0.13 in Rain Light Rain
9:19 AM 53.6 °F 51.8 °F 94% 29.93 in 2.5 mi Calm Calm - 0.07 in Rain Rain
9:42 AM 55.4 °F 51.8 °F 88% 29.94 in 9.0 mi Calm Calm - 0.12 in Rain Light Rain
9:53 AM 55.0 °F 52.0 °F 89% 29.94 in 10.0 mi East 8.1 mph - 0.12 in   Overcast
10:53 AM 57.9 °F 54.0 °F 87% 29.94 in 10.0 mi SE 12.7 mph 21.9 mph 0.03 in Rain Light Rain
11:14 AM 57.2 °F 53.6 °F 88% 29.94 in 2.5 mi SE 10.4 mph - 0.02 in Rain Rain
11:22 AM 57.2 °F 53.6 °F 88% 29.95 in 9.0 mi SSE 10.4 mph - 0.02 in Rain Light Rain
11:39 AM 57.2 °F 55.4 °F 94% 29.95 in 4.0 mi SSE 11.5 mph - 0.05 in Rain Light Rain
11:53 AM 59.0 °F 55.0 °F 87% 29.95 in 9.0 mi South 8.1 mph - 0.07 in Rain Light Rain
12:29 PM 59.0 °F 57.2 °F 94% 29.97 in 2.0 mi South 32.2 mph 39.1 mph 0.07 in Rain Light Rain
12:39 PM 60.8 °F 57.2 °F 88% 29.97 in 3.0 mi South 27.6 mph 42.6 mph 0.10 in Rain Light Rain
12:53 PM 59.0 °F 57.9 °F 96% 29.98 in 10.0 mi South 19.6 mph 34.5 mph 0.10 in   Overcast
1:53 PM 62.1 °F 60.1 °F 93% 29.98 in 10.0 mi South 18.4 mph - 0.01 in   Partly Cloudy
2:53 PM 62.1 °F 55.9 °F 80% 29.98 in 10.0 mi SSW 13.8 mph - N/A   Overcast
3:53 PM 61.0 °F 55.0 °F 81% 30.00 in 10.0 mi South 9.2 mph - N/A   Clear
4:53 PM 57.9 °F 54.0 °F 87% 30.02 in 10.0 mi SSW 4.6 mph - N/A   Clear
5:53 PM 57.9 °F 54.0 °F 87% 30.03 in 10.0 mi SSW 4.6 mph - N/A   Clear
6:53 PM 55.9 °F 53.1 °F 90% 30.05 in 10.0 mi Calm Calm - N/A   Clear
7:53 PM 54.0 °F 52.0 °F 93% 30.06 in 8.0 mi NW 3.5 mph - N/A   Clear
8:53 PM 53.1 °F 51.1 °F 93% 30.07 in 8.0 mi WNW 3.5 mph - N/A   Clear
9:53 PM 52.0 °F 51.1 °F 97% 30.08 in 10.0 mi NW 3.5 mph - N/A   Partly Cloudy
11:53 PM 51.1 °F 48.9 °F 92% 30.09 in 10.0 mi NW 4.6 mph - N/A   Clear